Location: Jackson
(42.2460°N, 84.4010°W)
Time: 23:23:19
(UTC-04:00)

Vanguard 2 - Pass Details

Date: 15 February 2026
Orbit: 553 x 2896 km, 32.9° (Epoch: 16 March)

Event Time Altitude Azimuth Distance (km) Brightness Sun altitude
Rises 06:59:58 0° 224° (SW) 3,309 10.5 -6.9°
Reaches altitude 10° 07:03:37 10° 202° (SSW) 2,091 9.7 -6.2°
Maximum altitude 07:06:16 15° 166° (SSE) 1,628 9.6 -5.8°
Drops below altitude 10° 07:08:41 10° 130° (SE) 1,851 10.7 -5.3°
Sets 07:11:35 0° 105° (ESE) 2,715 13.4 -4.8°
